TimeCDT,TemperatureF,Dew PointF,Humidity,Sea Level PressureIn,VisibilityMPH,Wind Direction,Wind SpeedMPH,Gust SpeedMPH,PrecipitationIn,Events,Conditions,WindDirDegrees,DateUTC
12:53 AM,68.0,53.1,59,29.90,10.0,South,9.2,-,N/A,,Clear,170,2013-09-15 05:53:00
1:53 AM,66.9,54.0,63,29.89,10.0,South,9.2,-,N/A,,Clear,170,2013-09-15 06:53:00
2:53 AM,66.0,54.0,65,29.89,10.0,South,5.8,-,N/A,,Clear,170,2013-09-15 07:53:00
3:53 AM,64.9,54.0,68,29.87,10.0,South,6.9,-,N/A,,Clear,180,2013-09-15 08:53:00
4:53 AM,66.9,55.0,66,29.87,10.0,South,6.9,-,N/A,,Clear,190,2013-09-15 09:53:00
5:53 AM,66.0,55.9,70,29.88,10.0,SSW,6.9,-,N/A,,Mostly Cloudy,200,2013-09-15 10:53:00
6:53 AM,64.0,57.9,80,29.91,10.0,Calm,Calm,-,N/A,,Clear,0,2013-09-15 11:53:00
7:53 AM,64.0,59.0,84,29.91,10.0,Calm,Calm,-,N/A,,Overcast,0,2013-09-15 12:53:00
8:35 AM,64.4,60.8,88,29.95,4.0,Calm,Calm,-,0.01,Rain-Thunderstorm,Light Thunderstorms and Rain,0,2013-09-15 13:35:00
8:39 AM,64.4,60.8,88,29.95,1.5,SSW,4.6,-,0.07,Rain-Thunderstorm,Heavy Thunderstorms and Rain,200,2013-09-15 13:39:00
8:53 AM,64.0,63.0,96,29.93,2.5,SSW,6.9,-,0.22,Rain-Thunderstorm,Light Thunderstorms and Rain,210,2013-09-15 13:53:00
8:59 AM,64.4,64.4,100,29.94,10.0,SW,4.6,-,0.01,Rain-Thunderstorm,Light Thunderstorms and Rain,220,2013-09-15 13:59:00
9:06 AM,64.4,64.4,100,29.95,10.0,SSW,5.8,-,0.01,,Overcast,200,2013-09-15 14:06:00
9:23 AM,64.4,64.4,100,29.97,10.0,WSW,6.9,-,0.01,Thunderstorm,Overcast,250,2013-09-15 14:23:00
9:53 AM,66.0,64.9,96,29.96,4.0,West,3.5,-,0.04,Rain,Rain,270,2013-09-15 14:53:00
9:58 AM,66.2,66.2,100,29.97,2.5,Variable,3.5,-,0.04,Rain-Thunderstorm,Rain,0,2013-09-15 14:58:00
10:09 AM,66.2,66.2,100,29.98,5.0,South,4.6,-,0.05,Rain-Thunderstorm,Light Rain,170,2013-09-15 15:09:00
10:16 AM,66.2,66.2,100,29.98,8.0,Calm,Calm,-,0.06,Rain,Light Rain,0,2013-09-15 15:16:00
10:28 AM,66.2,66.2,100,29.98,7.0,Calm,Calm,-,0.06,Rain,Light Rain,0,2013-09-15 15:28:00
10:53 AM,68.0,68.0,100,29.98,6.0,WSW,3.5,-,0.06,,Mostly Cloudy,250,2013-09-15 15:53:00
11:04 AM,69.8,68.0,94,29.99,6.0,Calm,Calm,-,0.00,Rain,Light Rain,0,2013-09-15 16:04:00
11:10 AM,69.8,68.0,94,30.00,5.0,Calm,Calm,-,0.00,Rain,Light Rain,0,2013-09-15 16:10:00
11:19 AM,69.8,68.0,94,30.01,6.0,NW,5.8,-,0.00,Rain,Light Rain,310,2013-09-15 16:19:00
11:44 AM,68.0,66.2,94,30.00,4.0,NW,3.5,-,0.01,Rain,Light Rain,320,2013-09-15 16:44:00
11:50 AM,68.0,66.2,94,30.02,2.0,WNW,5.8,-,0.02,Rain,Light Rain,290,2013-09-15 16:50:00
11:53 AM,68.0,66.9,96,30.00,1.5,WNW,4.6,-,0.02,Rain-Thunderstorm,Light Thunderstorms and Rain,300,2013-09-15 16:53:00
12:00 PM,68.0,68.0,100,30.01,2.5,North,3.5,-,0.01,Rain-Thunderstorm,Thunderstorms and Rain,350,2013-09-15 17:00:00
12:07 PM,68.0,68.0,100,30.00,4.0,NNW,8.1,-,0.01,Rain-Thunderstorm,Light Thunderstorms and Rain,340,2013-09-15 17:07:00
12:21 PM,66.2,66.2,100,30.01,6.0,NNW,5.8,-,0.01,Thunderstorm,Overcast,340,2013-09-15 17:21:00
12:33 PM,66.2,66.2,100,30.01,6.0,North,9.2,-,0.01,,Overcast,350,2013-09-15 17:33:00
12:53 PM,66.9,64.9,93,30.00,9.0,North,9.2,-,0.01,,Overcast,360,2013-09-15 17:53:00
1:02 PM,66.2,64.4,94,30.02,10.0,Variable,6.9,-,N/A,,Overcast,0,2013-09-15 18:02:00
1:14 PM,66.2,64.4,94,30.02,10.0,North,9.2,-,N/A,,Overcast,350,2013-09-15 18:14:00
1:53 PM,69.1,64.9,87,30.01,9.0,North,6.9,-,N/A,,Overcast,360,2013-09-15 18:53:00
2:25 PM,69.8,64.4,83,30.04,9.0,North,10.4,-,N/A,,Overcast,10,2013-09-15 19:25:00
2:53 PM,69.1,64.0,84,30.04,10.0,NNW,11.5,-,N/A,,Overcast,340,2013-09-15 19:53:00
3:53 PM,68.0,63.0,84,30.04,10.0,North,11.5,18.4,N/A,,Overcast,10,2013-09-15 20:53:00
4:53 PM,68.0,61.0,78,30.06,10.0,NNE,10.4,18.4,N/A,,Overcast,20,2013-09-15 21:53:00
5:53 PM,66.0,60.1,81,30.09,10.0,NNE,8.1,-,N/A,,Overcast,20,2013-09-15 22:53:00
6:53 PM,63.0,59.0,87,30.13,10.0,NNE,8.1,-,N/A,,Overcast,20,2013-09-15 23:53:00
7:48 PM,62.6,59.0,88,30.15,10.0,NNE,4.6,-,N/A,,Overcast,30,2013-09-16 00:48:00
7:53 PM,62.1,59.0,90,30.14,10.0,North,4.6,-,N/A,,Overcast,10,2013-09-16 00:53:00
8:08 PM,62.6,59.0,88,30.14,10.0,NE,4.6,-,N/A,,Overcast,50,2013-09-16 01:08:00
8:17 PM,62.6,59.0,88,30.15,10.0,Calm,Calm,-,N/A,,Overcast,0,2013-09-16 01:17:00
8:26 PM,62.6,59.0,88,30.16,10.0,North,3.5,-,N/A,,Overcast,350,2013-09-16 01:26:00
8:53 PM,62.1,60.1,93,30.15,10.0,Variable,5.8,-,0.00,,Overcast,0,2013-09-16 01:53:00
9:04 PM,62.6,60.8,94,30.16,10.0,NNE,5.8,-,N/A,,Overcast,20,2013-09-16 02:04:00
9:53 PM,62.1,59.0,90,30.14,10.0,NNE,10.4,-,N/A,,Overcast,30,2013-09-16 02:53:00
10:53 PM,62.1,57.9,86,30.17,10.0,NE,6.9,-,N/A,,Overcast,50,2013-09-16 03:53:00
11:53 PM,62.1,57.0,84,30.19,10.0,ENE,8.1,-,N/A,,Overcast,60,2013-09-16 04:53:00